Regional Weather Roundup
Issued by NWS

Home | Current Version | Previous Version | Graphics & Text | Print | Product List | Glossary Off
Versions: 1 2 3 4 5 6 7 8 9 10 11 12 13 14 15 16 17 18 19 20 21 22 23 24 25 26 27 28 29 30 31 32 33 34 35 36 37 38 39 40 41 42 43 44 45 46 47 48 49 50

000
ASUS43 KLSX 290707
RWRMO

WEATHER SUMMARY FOR MISSOURI
NATIONAL WEATHER SERVICE SPRINGFIELD MO
200 AM CDT FRI MAY 29 2015

NOTE: "FAIR" INDICATES FEW OR NO CLOUDS BELOW 12,000 FEET WITH NO
       SIGNIFICANT WEATHER AND/OR OBSTRUCTIONS TO VISIBILITY.
       CURRENT SKY AND/OR WEATHER CONDITIONS ARE NOT AVAILABLE FOR
       CHILLICOTHE AND FARMINGTON.

MOZ001>031-035>038-043-044-053-054-290800-
...NORTHERN AND WESTERN MISSOURI...

CITY           SKY/WX    TMP DP  RH WIND       PRES   REMARKS
KANSAS CTY INT MOCLDY    64  63  96 SE8       29.95F
KANSAS C DTWN  MOCLDY    66  61  84 CALM      29.94F
LEE`S SUMMIT   MOCLDY    63  61  93 SE5       29.96F
ST JOSEPH      MOCLDY    65  63  93 S6        29.95F
CHILLICOTHE      N/A     67  65  93 CALM      29.98F
KIRKSVILLE     CLOUDY    65  64  97 SE3       29.99F

$$
MOZ066>068-077>081-088>096-101>105-290800-
...SOUTHWEST MISSOURI...

CITY           SKY/WX    TMP DP  RH WIND       PRES   REMARKS
SPRINGFIELD    MOCLDY    66  62  87 SE12      29.97F
JOPLIN         CLOUDY    68  64  87 SE8       29.95F

$$
MOZ032>034-039>042-045>050-055>058-069>072-290800-
...CENTRAL MISSOURI...

CITY           SKY/WX    TMP DP  RH WIND       PRES   REMARKS
COLUMBIA       CLOUDY    66  65  96 S9        29.97F
JEFFERSON CITY CLOUDY    67  64  90 SE7       29.97F
ROLLA          MOCLDY    68  65  90 S9        29.99F
SEDALIA        CLOUDY    67  65  93 SW3       29.98F
WHITEMAN AFB   CLOUDY    66  65  98 SE1       29.96F
WARRENSBURG    CLOUDY    64  63  94 CALM      29.95F
OSAGE BEACH    CLOUDY    64  63  94 S6        29.98F

$$
MOZ051-052-059>065-290800-
...EAST CENTRAL MISSOURI...

CITY           SKY/WX    TMP DP  RH WIND       PRES   REMARKS
ST LOUIS INTL  CLOUDY    74  64  71 S8        30.03F
SPIRIT OF STL  CLOUDY   N/A N/A N/A SE3       30.01F
ST CHARLES     CLOUDY    71  65  81 SE5       30.02F

$$
MOZ072>076-082>087-097>100-106>115-290800-
...SOUTH CENTRAL AND SOUTHEAST MISSOURI...

CITY           SKY/WX    TMP DP  RH WIND       PRES   REMARKS
CAPE GIRARDEAU CLEAR     68  66  93 SW5       30.06F
FARMINGTON     CLOUDY    68  64  88 S7        30.08F
POPLAR BLUFF   CLOUDY    72  67  84 S6        30.03F
WEST PLAINS    CLOUDY    70  64  81 S7        30.05F

$$



USA.gov is the U.S. government's official web portal to all federal, state and local government web resources and services.